• In Italy
  • List of Countries
  • For 7 days
  • Water Temperature
  • Satellite Maps
  • Weather Map
  • Weather Widgets
  • user-avatar
    Login

    Hourly Weather Tibissa

    Today, 21 September, Thursday

    Time Temperature Precipitation Wind Pressure Humidity
    00:00 +18°C° 0 mm 2 mps 689 mmHg 53%
    01:00 +19°C° 0 mm 1 mps 689 mmHg 54%
    02:00 +18°C° 0 mm 1 mps 688 mmHg 55%
    03:00 +18°C° 0 mm 1 mps 688 mmHg 56%
    04:00 +18°C° 0 mm 1 mps 688 mmHg 57%
    05:00 +16°C° 0 mm 1 mps 688 mmHg 57%
    06:00 +16°C° 0 mm 1 mps 688 mmHg 57%
    07:00 +16°C° 0 mm 1 mps 688 mmHg 57%
    08:00 +18°C° 0 mm 2 mps 688 mmHg 53%
    09:00 +19°C° 0 mm 2 mps 689 mmHg 49%
    10:00 +20°C° 0 mm 2 mps 689 mmHg 45%
    11:00 +23°C° 0 mm 2 mps 689 mmHg 41%
    12:00 +24°C° 0 mm 2 mps 689 mmHg 37%
    13:00 +25°C° 0 mm 2 mps 689 mmHg 32%
    14:00 +26°C° 0 mm 2 mps 689 mmHg 30%
    15:00 +26°C° 0 mm 2 mps 688 mmHg 28%
    16:00 +27°C° 0 mm 2 mps 688 mmHg 26%
    17:00 +26°C° 0 mm 2 mps 688 mmHg 28%
    18:00 +26°C° 0 mm 2 mps 688 mmHg 30%
    19:00 +25°C° 0 mm 2 mps 688 mmHg 31%
    20:00 +24°C° 0 mm 2 mps 688 mmHg 35%
    21:00 +24°C° 0 mm 2 mps 688 mmHg 38%
    22:00 +23°C° 0 mm 2 mps 688 mmHg 42%
    23:00 +21°C° 0 mm 2 mps 688 mmHg 45%

    Tomorrow, 22 September, Friday

    Time Temperature Precipitation Wind Pressure Humidity
    00:00 +21°C° 0 mm 2 mps 688 mmHg 48%
    01:00 +21°C° 0 mm 1 mps 688 mmHg 51%
    02:00 +21°C° 0 mm 1 mps 688 mmHg 53%
    03:00 +20°C° 0 mm 1 mps 687 mmHg 55%
    04:00 +20°C° 0 mm 1 mps 687 mmHg 58%
    05:00 +20°C° 0 mm 1 mps 687 mmHg 58%
    06:00 +20°C° 0 mm 1 mps 687 mmHg 57%
    07:00 +20°C° 0 mm 1 mps 687 mmHg 57%
    08:00 +21°C° 0 mm 1 mps 688 mmHg 50%
    09:00 +23°C° 0 mm 1 mps 688 mmHg 43%
    10:00 +25°C° 0 mm 2 mps 689 mmHg 36%
    11:00 +26°C° 0 mm 2 mps 689 mmHg 32%
    12:00 +27°C° 0 mm 2 mps 689 mmHg 29%
    13:00 +28°C° 0 mm 2 mps 689 mmHg 26%
    14:00 +28°C° 0 mm 2 mps 689 mmHg 25%
    15:00 +28°C° 0 mm 2 mps 688 mmHg 24%
    16:00 +29°C° 0 mm 2 mps 688 mmHg 23%
    17:00 +28°C° 0 mm 2 mps 688 mmHg 25%
    18:00 +27°C° 0 mm 3 mps 688 mmHg 27%
    19:00 +27°C° 0 mm 3 mps 688 mmHg 30%
    20:00 +26°C° 0 mm 3 mps 688 mmHg 34%
    21:00 +25°C° 0 mm 3 mps 689 mmHg 38%
    22:00 +24°C° 0 mm 2 mps 689 mmHg 42%
    23:00 +23°C° 0 mm 2 mps 689 mmHg 44%

    Day after tomorrow, 23 September, Saturday

    Time Temperature Precipitation Wind Pressure Humidity
    00:00 +23°C° 0 mm 2 mps 688 mmHg 47%
    01:00 +21°C° 0 mm 2 mps 688 mmHg 49%
    02:00 +21°C° 0 mm 2 mps 688 mmHg 50%
    03:00 +22°C° 0 mm 1 mps 688 mmHg 51%
    04:00 +21°C° 0 mm 1 mps 688 mmHg 52%
    05:00 +21°C° 0 mm 1 mps 688 mmHg 52%
    06:00 +21°C° 0 mm 1 mps 688 mmHg 51%
    07:00 +21°C° 0 mm 1 mps 688 mmHg 51%
    08:00 +23°C° 0 mm 1 mps 689 mmHg 45%
    09:00 +24°C° 0 mm 2 mps 689 mmHg 40%
    10:00 +26°C° 0 mm 2 mps 690 mmHg 35%
    11:00 +27°C° 0 mm 2 mps 689 mmHg 32%
    12:00 +28°C° 0 mm 2 mps 689 mmHg 29%
    13:00 +29°C° 0 mm 2 mps 689 mmHg 26%
    14:00 +29°C° 0 mm 2 mps 689 mmHg 25%
    15:00 +30°C° 0 mm 3 mps 689 mmHg 24%
    16:00 +30°C° 0 mm 3 mps 689 mmHg 22%
    17:00 +29°C° 0 mm 3 mps 689 mmHg 24%
    18:00 +29°C° 0 mm 3 mps 689 mmHg 27%
    19:00 +28°C° 0 mm 4 mps 689 mmHg 29%
    20:00 +27°C° 0 mm 3 mps 689 mmHg 32%
    21:00 +26°C° 0 mm 3 mps 689 mmHg 36%
    22:00 +25°C° 0 mm 2 mps 689 mmHg 39%
    23:00 +25°C° 0 mm 2 mps 688 mmHg 41%

    24 September, Sunday

    Time Temperature Precipitation Wind Pressure Humidity
    00:00 +24°C° 0 mm 2 mps 688 mmHg 43%
    01:00 +24°C° 0 mm 2 mps 688 mmHg 45%
    02:00 +23°C° 0 mm 2 mps 688 mmHg 45%
    03:00 +23°C° 0 mm 2 mps 687 mmHg 46%
    04:00 +23°C° 0 mm 2 mps 687 mmHg 46%
    05:00 +21°C° 0.1 mm 2 mps 687 mmHg 47%
    06:00 +21°C° 0.1 mm 3 mps 687 mmHg 47%
    07:00 +21°C° 0.1 mm 3 mps 687 mmHg 47%
    08:00 +23°C° 0 mm 4 mps 688 mmHg 42%
    09:00 +26°C° 0 mm 5 mps 688 mmHg 36%
    10:00 +28°C° 0 mm 6 mps 689 mmHg 30%
    11:00 +29°C° 0 mm 6 mps 689 mmHg 28%
    12:00 +30°C° 0 mm 6 mps 689 mmHg 25%
    13:00 +32°C° 0 mm 7 mps 689 mmHg 23%
    14:00 +32°C° 0 mm 7 mps 688 mmHg 23%
    15:00 +32°C° 0 mm 6 mps 688 mmHg 23%
    16:00 +30°C° 0 mm 6 mps 688 mmHg 24%
    17:00 +29°C° 0 mm 6 mps 688 mmHg 29%
    18:00 +28°C° 0 mm 6 mps 688 mmHg 35%
    19:00 +27°C° 0 mm 5 mps 688 mmHg 40%
    20:00 +26°C° 0 mm 4 mps 688 mmHg 44%
    21:00 +25°C° 0 mm 3 mps 688 mmHg 49%
    22:00 +24°C° 0 mm 2 mps 688 mmHg 53%
    23:00 +23°C° 0.1 mm 2 mps 688 mmHg 56%

    25 September, Monday

    Time Temperature Precipitation Wind Pressure Humidity
    00:00 +23°C° 0.1 mm 1 mps 687 mmHg 58%
    01:00 +22°C° 0.1 mm 1 mps 687 mmHg 61%
    02:00 +22°C° 0 mm 1 mps 687 mmHg 63%
    03:00 +21°C° 0 mm 1 mps 686 mmHg 64%
    04:00 +19°C° 0 mm 0 mps 686 mmHg 66%
    05:00 +19°C° 0 mm 0 mps 686 mmHg 65%
    06:00 +19°C° 0 mm 0 mps 686 mmHg 65%
    07:00 +19°C° 0 mm 0 mps 686 mmHg 64%
    08:00 +20°C° 0 mm 0 mps 687 mmHg 58%
    09:00 +24°C° 0 mm 1 mps 687 mmHg 51%
    10:00 +25°C° 0 mm 1 mps 688 mmHg 45%
    11:00 +26°C° 0 mm 2 mps 687 mmHg 40%
    12:00 +27°C° 0 mm 2 mps 687 mmHg 36%
    13:00 +28°C° 0 mm 3 mps 687 mmHg 31%
    14:00 +28°C° 0 mm 3 mps 687 mmHg 30%
    15:00 +29°C° 0 mm 3 mps 687 mmHg 28%
    16:00 +29°C° 0 mm 3 mps 687 mmHg 27%
    17:00 +28°C° 0 mm 3 mps 687 mmHg 28%
    18:00 +27°C° 0 mm 3 mps 687 mmHg 29%
    19:00 +27°C° 0 mm 3 mps 687 mmHg 30%
    20:00 +26°C° 0 mm 3 mps 687 mmHg 34%
    21:00 +25°C° 0 mm 3 mps 687 mmHg 37%
    22:00 +24°C° 0 mm 3 mps 687 mmHg 40%
    23:00 +22°C° 0 mm 3 mps 687 mmHg 45%

    26 September, Tuesday

    Time Temperature Precipitation Wind Pressure Humidity
    00:00 +22°C° 0 mm 3 mps 687 mmHg 49%
    01:00 +21°C° 0 mm 2 mps 687 mmHg 53%
    02:00 +21°C° 0 mm 2 mps 686 mmHg 56%
    03:00 +20°C° 0 mm 2 mps 686 mmHg 59%
    04:00 +21°C° 0 mm 1 mps 686 mmHg 62%
    05:00 +21°C° 0 mm 1 mps 686 mmHg 62%
    06:00 +21°C° 0 mm 1 mps 686 mmHg 63%
    07:00 +20°C° 0 mm 1 mps 686 mmHg 63%
    08:00 +22°C° 0 mm 1 mps 686 mmHg 57%
    09:00 +23°C° 0 mm 2 mps 687 mmHg 51%
    10:00 +25°C° 0 mm 2 mps 687 mmHg 45%
    11:00 +26°C° 0 mm 2 mps 687 mmHg 40%
    12:00 +27°C° 0 mm 2 mps 687 mmHg 35%
    13:00 +28°C° 0 mm 2 mps 687 mmHg 30%
    14:00 +28°C° 0 mm 2 mps 687 mmHg 28%
    15:00 +29°C° 0 mm 2 mps 686 mmHg 26%
    16:00 +29°C° 0 mm 2 mps 686 mmHg 24%
    17:00 +29°C° 0 mm 2 mps 686 mmHg 25%
    18:00 +28°C° 0 mm 3 mps 686 mmHg 26%
    19:00 +28°C° 0 mm 3 mps 686 mmHg 28%
    20:00 +27°C° 0 mm 3 mps 687 mmHg 32%
    21:00 +26°C° 0 mm 2 mps 687 mmHg 36%
    22:00 +25°C° 0 mm 2 mps 687 mmHg 40%
    23:00 +24°C° 0 mm 2 mps 687 mmHg 43%
    Show more